www.pogodaiklimat.ru

Погода и климат >> Архив погоды >> Россия >> Красноярский край >> Шарыпово


ПОГОДА в Шарыпово

  • Прогноз погоды в Шарыпово
  • Монитор погоды в Шарыпово

АРХИВ ПОГОДЫ в Шарыпово

Время (UTC), дата Ветер
(напр.,м/с)
 
Видим.   Явления Облачность Т
(С)
Тd
(С)
f
(%)
Тe
(С)
Тes
(С)
Комфортность P
(гПа)
Po
(гПа)
Тmin
(С)
Tmax
(С)
R
(мм)
R24
(мм)
S
(см)
09 13.04 З 9-16
{17}
6000 м пыльная буря на расстоянии {метель} 10/3
[Cu hum Ci fib]
+16.9 -11.4 13 +16 +16 1007.5 970.5
12 13.04 З 7-12
{19}
7000 м пыльный позёмок 8/3 1000 м
[Cu hum Ci fib]
+15.7 -7.9 19 +14 +14 1007.8 970.7 +17.5
15 13.04 ЮЗ 4
{13}
20 км {метель} 10/4 600 м
[Cb cap Ac trans Ci fib]
+13.6 -4.3 29 +12 +12 1007.8 970.4
18 13.04 С 5-10
{13}
20 км {метель} 10/0
[Ac trans Ci fib]
+12.0 -3.1 35 +10 +10 1007.7 970.2
21 13.04 СЗ 3
{10}
20 км 10/10 420 м
[Cb cap]
+3.6 +1.8 88 -0 -0 1011.2 972.3
00 14.04 СЗ 4 4400 м слаб. ливневой снег 10/10 450 м
[Cb cap]
+0.1 -0.7 94 -6 -6 1013.1 973.7 +0.1 0.1 <0.5
03 14.04 ЮЗ 1 15 км слаб. ливневой снег 10/8 600 м
[Cb cap Ac As]
-0.1 -0.9 94 -2 -2 1014.0 974.6
06 14.04 СЗ 4 50 км {ливн. осадки} 10/10 480 м
[Cb cap]
+3.1 -2.7 66 -1 -1 1013.8 974.9
09 14.04 СЗ 3 50 км 10/8 600 м
[Cb cap Ac As]
+4.0 -3.6 58 +1 +1 1014.2 975.2
12 14.04 СЗ 3 50 км 10/9 540 м
[Cb cap Ci fib]
+4.4 -3.7 56 +1 +1 1014.0 975.1 +5.1 2
15 14.04 штиль 0 20 км 10/5 600 м
[Cb cap Ac und]
+2.2 -3.8 64 +2 +2 1014.5 975.3
18 14.04 С 1 4000 м слаб. ливневой снег 10/9 420 м
[Cb cap Ac und]
-1.2 -1.8 96 -4 -4 1014.8 975.1
21 14.04 С 3 2000 м слаб. ливневой снег 10/8 400 м
[Cb cap Ac As]
-2.5 -2.8 98 -8 -8 1014.3 974.5
00 15.04 С 3 20 км {ливн. осадки} 10/5 300 м
[Cb cap Ac As Ci fib]
-2.9 -4.9 86 -8 -8 1015.6 975.6 -3.0 5 6
03 15.04 С 2 50 км 10/8 600 м
[Cb cap Cs]
-2.4 -7.2 70 -6 -5 1016.3 976.4 -3.4
06 15.04 З 2 50 км 10/8 600 м
[Cb cap Cc]
-1.1 -8.5 57 -4 -3 1015.8 976.1
09 15.04 СВ 1 50 км 10/5 1000 м
[Cu Sc Ac trans Cs]
+0.3 -8.0 54 -1 +1 1014.3 974.9
12 15.04 ЮВ 1 50 км 10/3 1000 м
[Cu Sc Ac trans Cs]
+0.1 -10.2 46 -1 -1 1012.6 973.1 +1.2
15 15.04 штиль 0 20 км 10/0
[Ac trans Cs]
-2.6 -6.7 73 -3 -3 1010.8 971.1
18 15.04 В 1 20 км 10/0
[Cs]
-3.6 -7.2 76 -6 -6 1008.4 968.7
21 15.04 СВ 2 20 км 10/0
[Cs]
-4.9 -5.9 93 -9 -9 1007.2 967.2
00 16.04 СВ 2 50 км 10/0
[Ac As Ci fib]
-5.7 -10.9 67 -10 -10 1007.1 967.1 -6.0 <0.5
03 16.04 С 2 50 км 3/0
[Ci sp]
-1.0 -10.2 50 -4 +2 1007.3 967.9
06 16.04 СЗ 2 50 км 3/3 1000 м
[Cu hum]
+2.1 -10.4 39 -0 +8 1008.4 969.3
09 16.04 СВ 2 50 км 3/3 1000 м
[Cu hum]
+4.2 -12.1 29 +2 +7 1008.8 970.0
12 16.04 СЗ 1 50 км 1/1 1000 м
[Cu Sc]
+4.8 -9.2 35 +4 +5 1009.7 971.0 +5.5
15 16.04 ЮВ 1 20 км ясно -1.8 -7.5 65 -4 -4 1012.2 972.6
18 16.04 Ю 1 20 км ясно -4.4 -7.9 77 -7 -7 1013.6 973.5
21 16.04 ЮВ 1 20 км ясно -5.8 -8.8 79 -8 -8 1014.6 974.2
00 17.04 Ю 2 50 км 10/0
[Ac trans Cc]
-2.8 -6.5 76 -7 -6 1014.0 974.2 -6.4
03 17.04 Ю 4 50 км 10/0
[Ac trans Cc]
+3.5 -5.8 51 -0 +3 1012.2 973.3
06 17.04 ЮЗ 5-10
{11}
50 км 4/3 600 м
[Cb cap Ci fib]
+6.7 -11.4 26 +4 +8 1011.1 972.7
09 17.04 З 6
{10}
50 км 10/5 600 м
[Cb cap Ac trans Ci fib]
+6.5 -9.0 32 +3 +3 1009.3 970.9
12 17.04 З 4
{10}
50 км 10/3 600 м
[Cb cap Ac trans Ci fib]
+5.2 -8.9 35 +2 +2 1008.1 969.6 +8.5
15 17.04 ЮВ 2 20 км 10/3 1000 м
[Sc Ac trans Ci fib]
+0.5 -6.9 58 -3 -3 1007.1 968.0
18 17.04 штиль 0 20 км 10/0
[Ac trans Ci fib]
+0.8 -6.4 59 0 0 1004.1 965.0
21 17.04 Ю 4 20 км 8/0
[Ac trans Ci fib]
+0.9 -6.3 59 -4 -4 999.6 960.8
00 18.04 Ю 4 50 км 10/4 600 м
[Cb cap Ac trans Cs]
+3.0 -3.8 61 -1 -1 992.9 954.8 -0.4
03 18.04 ЮЗ 6-12
{14}
20 км в посл. час ливневой дождь 10/3 300 м
[Cb cap Ac und]
+3.1 -1.7 71 -2 -2 992.1 954.0
06 18.04 З 8-15
{23}
10 км слаб. ливневой снег 10/8 540 м
[Cb cap Ac und]
+0.3 -2.9 79 -7 -7 997.6 958.9
09 18.04 З 8-16
{18}
2300 м слаб. ливневой снег 9/6 600 м
[Cb cap Ac trans Ci fib]
-1.1 -7.7 61 -8 -8 1006.1 966.8
12 18.04 З 8-15
{18}
20 км в посл. час ливневой снег 5/4 600 м
[Cb cap Ci fib]
-4.8 -14.8 45 -13 -13 1012.3 972.1 +4.6 3
15 18.04 З 7-14
{17}
20 км 6/4 600 м
[Cb cap Ci fib]
-7.9 -15.2 56 -16 -16 1016.2 975.4
18 18.04 З 7-11
{17}
20 км 10/4 600 м
[Cb cap Ac trans Ci fib]
-8.1 -13.8 63 -17 -17 1018.7 977.8
21 18.04 З 7-12
{14}
20 км 10/5 600 м
[Cb cap Ac trans Ci fib]
-6.6 -12.2 64 -15 -15 1021.5 980.8
00 19.04 ЮЗ 8-15
{16}
20 км 10/5 600 м
[Cb cap Ac trans Ci fib]
-6.6 -12.2 64 -15 -15 1024.9 984.1 -9.0 <0.5
03 19.04 З 7
{15}
50 км 3/3 1000 м
[Sc]
-3.6 -12.7 49 -11 -10 1026.5 986.0
06 19.04 ЮЗ 7-13
{14}
50 км 6/5 1000 м
[Cu Sc Ci fib]
-1.1 -13.1 40 -8 -6 1027.2 987.0
09 19.04 З 5
{13}
50 км 4/4 1000 м
[Cu hum]
+0.8 -13.2 34 -4 -2 1026.1 986.2
12 19.04 ЮЗ 4
{13}
50 км 8/6 1000 м
[Cu Sc Ci fib]
+0.4 -13.5 34 -4 -4 1024.9 985.0 +1.2
15 19.04 Ю 1 20 км 10/0
[Ac trans Ci fib]
-2.6 -10.5 55 -4 -4 1023.3 983.1
18 19.04 ЮВ 1 20 км 8/0
[Ac lent Cc]
-6.4 -10.0 76 -9 -9 1022.1 981.3
21 19.04 Ю 1 20 км 10/0
[Cc]
-8.0 -10.3 83 -10 -10 1020.6 979.6
00 20.04 Ю 1 50 км 10/0
[Ac trans Cc]
-7.6 -10.2 82 -10 -9 1018.6 977.9 -8.8
03 20.04 50 км 10/0
[Cs]
+0.8 -9.0 48 1015.4 975.9

 

Местоположение метеостанции Шарыпово (Красноярский край, Россия): широта 55.53 долгота 89.20 высота над уровнем моря 319 м.

В архиве по умолчанию представлена погода в Шарыпово за последнюю неделю. Архивные данные за месяц целиком и за предыдущие месяцы, начиная с января 2011 года, Вы можете получить, выбрав интересующий диапазон дат из раскрывающегося списка и нажав кнопку "Ввод!".


*Определитесь, кто Вы:
робот инопланетянин человек

Внимание! Время в таблицах - всемирное. Для получения местного времени необходимо прибавить поправку, которая равна 7 ч.

Смотрите также архив погоды в соседних городах и на ближайших метеорологических станциях:

Погода в Ужуре (Красноярский край, Россия) (47 км)
Погода в Тисуле (Кемеровская область, Россия) (62 км)
Погода в Копьево-2 (Хакасия, Россия) (69 км)
Погода в Тяжине (Кемеровская область, Россия) (78 км)
Погода в Боготоле (Красноярский край, Россия) (81 км)
Погода в Назарово (Красноярский край, Россия) (89 км)
Погода в Ненастной (Хакасия, Россия) (90 км)
Погода в Центральном Руднике (Кемеровская область, Россия) (105 км)
Погода в Тюхтете (Красноярский край, Россия) (111 км)
Погода в Светлолобово (Красноярский край, Россия) (114 км)

Пояснения к столбцам:

Ветер - указаны скорость ветра в м/с - средняя за 10 мин, порывы в срок и между сроками (в фигурных скобках) и направление, откуда дует ветер: С - северный, СВ - северо-восточный, В - восточный, ЮВ - юго-восточный, Ю - южный, ЮЗ - юго-западный, З - западный, СЗ - северо-западный.
Видимость - горизонтальная дальность видимости в метрах или километрах. При видимости от 1 до 10 км при отсутствии осадков обычно наблюдается дымка, при ухудшении видимости до 1 км и менее - туман. В сухую погоду видимость может ухудшаться дымом, пылью или мглою.
Явления - указаны атмосферные явления, наблюдавшиеся в срок или в последний час перед сроком; фигурными скобками обозначены явления, наблюдавшиеся между сроками (за 1-3 часа до срока); квадратными скобками обозначены град или гололедные отложения с указанием их диаметра в мм.
Облачность - указаны через наклонную черту общая и нижняя облачность в баллах и высота нижней границы облаков в метрах; квадратными скобками обозначены формы облаков: Ci - перистые, Cs - перисто-слоистые, Cc - перисто-кучевые, Ac - высококучевые, As - высокослоистые, Sc - слоисто-кучевые, Ns - слоисто-дождевые, Cu - кучевые, Cb - кучево-дождевые. Подробнее классификацию облаков см. в Атласе облаков (PDF).
T - Температура воздуха - температура, измеренная на высоте 2 м над землей.
Td - Температура точки росы - температура, при понижении до которой содержащийся в воздухе водяной пар достигнет насыщения.
f - Относительная влажность воздуха - влажноcть воздуха, измеренная на высоте 2 м над землей.
Te - Эффективная температура - температура, которую ощущает одетый по сезону человек в тени. Характеристика душности погоды. При расчете учитывается влияние влажности воздуха и скорости ветра на теплоощущения человека.
Tes - Эффективная температура на солнце - температура, которую ощущает человек, с поправкой на солнечный нагрев. Характеристика знойности погоды. Зависит от высоты солнца над горизонтом, облачности и скорости ветра. Ночью, в пасмурную погоду, а также при ветре 12 м/с и более поправка равна нулю.
P - Атмосферное давление - приведенное к уровню моря атмосферное давление.
Po - Атмосферное давление - измеренное на уровне метеостанции атмосферное давление.
Tmin - Минимальная температура - минимум температуры воздуха на высоте 2 м над землей.
Tmax - Максимальная температура - максимум температуры воздуха на высоте 2 м над землей.
R - Количество осадков - Количество выпавших осадков за период времени, мм. При наведении курсора мыши на число - период времени, за который выпало указанное количество осадков.
R24 - Количество осадков - Количество выпавших осадков за 24 часа, мм.
S - Снежный покров - Высота снежного покрова, см. При наведении курсора мыши на число - состояние снежного покрова и степень покрытия местности в баллах.